Flint, MI

4:40 PM EDT on April 25, 2017 (GMT -0400)
Bishop International

Weather History for KFNT - November, 2013

Change the Weather History Date:

Friday, November 1, 2013

  Actual Average Record
Temperature  
Mean Temperature 54 °F 44 °F  
Max Temperature 62 °F 53 °F 79 °F (1950)
Min Temperature 46 °F 35 °F 20 °F (2010)
Degree Days  
Heating Degree Days 11 21  
Month to date heating degree days 11 21  
Since 1 July heating degree days 577 717  
Cooling Degree Days 0 0  
Month to date cooling degree days 0 0  
Year to date cooling degree days 758 531  
Moisture  
Dew Point 44 °F    
Average Humidity 74    
Maximum Humidity 86    
Minimum Humidity 61    
Precipitation  
Precipitation 0.06 in 0.09 in 1.00 in (1982)
Month to date precipitation 0.06 0.09  
Year to date precipitation 29.17 26.87  
Snow  
Snow 0.00 in 0.00 in T in (2002)
Month to date snowfall 0.0 0.0  
Since 1 July snowfall T 0.4  
Since 1 September snowfall T 0.4  
Snow Depth 0.00 in    
Sea Level Pressure  
Sea Level Pressure 29.44 in    
Wind  
Wind Speed 14 mph (WSW)    
Max Wind Speed 32 mph    
Max Gust Speed 43 mph    
Visibility 9 miles    
Events Rain    
T = Trace of Precipitation, MM = Missing Value Source: NWS Daily Summary

Daily Weather History Graph

Daily Weather History Graph

Search for Another Location

Airport or City:

Trip Planner

Search our weather history database for the weather conditions in past years. The results will help you decide how hot, cold, wet, or windy it might be!

Date:

Astronomy

Nov. 01, 2013 Rise Set
Actual Time 8:09 AM EDT 6:26 PM EDT
Civil Twilight 7:40 AM EDT 6:56 PM EDT
Nautical Twilight 7:06 AM EDT 7:29 PM EDT
Astronomical Twilight 6:33 AM EDT 8:02 PM EDT
Moon 5:58 AM EDT (11/1) 5:21 PM EDT (11/1)
Length of Visible Light 11h 16m
Length of Day
10h 17m
Waning Crescent, 4% of the Moon is Illuminated
Nov 1
Waning Crescent
Nov 3
New
Nov 10
First Quarter
Nov 17
Full
Nov 25
Last Quarter

Hourly Weather History & Observations

Time (EDT) Temp. Windchill Dew Point Humidity Pressure Visibility Wind Dir Wind Speed Gust Speed Precip Events Conditions
12:53 AM 62.1 °F - 57.0 °F 84% 29.12 in 10.0 mi WSW 24.2 mph 34.5 mph 0.00 in Rain Light Rain
1:24 AM 60.8 °F - 55.4 °F 82% 29.12 in 10.0 mi West 13.8 mph 26.5 mph 0.00 in Rain Light Rain
1:53 AM 59.0 °F - 54.0 °F 83% 29.10 in 10.0 mi WSW 15.0 mph 25.3 mph 0.00 in Rain Light Rain
2:29 AM 57.2 °F - 53.6 °F 88% 29.11 in 10.0 mi West 18.4 mph 29.9 mph 0.00 in Rain Light Rain
2:53 AM 55.9 °F - 52.0 °F 87% 29.12 in 10.0 mi West 19.6 mph 26.5 mph 0.00 in   Overcast
3:11 AM 55.4 °F - 51.8 °F 88% 29.15 in 10.0 mi WSW 18.4 mph 31.1 mph 0.00 in Rain Light Rain
3:23 AM 55.4 °F - 51.8 °F 88% 29.17 in 4.0 mi WSW 20.7 mph 29.9 mph 0.00 in Rain Light Rain
3:26 AM 55.4 °F - 51.8 °F 88% 29.17 in 3.0 mi WSW 19.6 mph 29.9 mph 0.00 in Rain Light Rain
3:35 AM 53.6 °F - 50.0 °F 88% 29.19 in 4.0 mi WSW 21.9 mph 33.4 mph 0.03 in Rain Rain
3:43 AM 53.6 °F - 50.0 °F 88% 29.19 in 7.0 mi WSW 19.6 mph 31.1 mph 0.05 in Rain Light Rain
3:53 AM 53.1 °F - 48.9 °F 86% 29.20 in 10.0 mi WSW 18.4 mph 33.4 mph 0.05 in Rain Light Rain
4:53 AM 52.0 °F - 46.0 °F 80% 29.24 in 10.0 mi West 24.2 mph 39.1 mph 0.00 in   Overcast
5:53 AM 50.0 °F - 42.1 °F 74% 29.30 in 10.0 mi West 27.6 mph 42.6 mph N/A   Overcast
6:53 AM 48.9 °F - 39.9 °F 71% 29.34 in 10.0 mi WSW 19.6 mph 38.0 mph N/A   Overcast
7:53 AM 48.0 °F - 39.9 °F 74% 29.38 in 10.0 mi WSW 18.4 mph 31.1 mph N/A   Overcast
8:53 AM 48.0 °F - 39.0 °F 71% 29.43 in 10.0 mi West 20.7 mph 41.4 mph N/A   Overcast
9:53 AM 48.9 °F - 39.0 °F 69% 29.47 in 10.0 mi WSW 23.0 mph 33.4 mph N/A   Overcast
10:53 AM 48.0 °F - 39.9 °F 74% 29.50 in 10.0 mi WSW 18.4 mph 27.6 mph N/A   Overcast
11:53 AM 48.9 °F - 39.9 °F 71% 29.51 in 10.0 mi West 9.2 mph 20.7 mph N/A   Overcast
12:53 PM 50.0 °F - 39.0 °F 66% 29.54 in 10.0 mi WSW 13.8 mph 23.0 mph N/A   Overcast
1:53 PM 50.0 °F - 37.9 °F 63% 29.55 in 10.0 mi WSW 12.7 mph 19.6 mph N/A   Overcast
2:41 PM 50.0 °F - 37.4 °F 62% 29.56 in 10.0 mi WSW 11.5 mph 21.9 mph N/A   Overcast
2:53 PM 50.0 °F - 37.9 °F 63% 29.57 in 10.0 mi West 13.8 mph 21.9 mph N/A   Overcast
3:14 PM 50.0 °F - 39.2 °F 66% 29.57 in 10.0 mi WSW 13.8 mph - N/A   Overcast
3:40 PM 50.0 °F - 39.2 °F 66% 29.57 in 10.0 mi WSW 8.1 mph - N/A   Overcast
3:53 PM 50.0 °F - 37.9 °F 63% 29.58 in 10.0 mi WSW 8.1 mph - N/A   Overcast
4:41 PM 48.2 °F - 39.2 °F 71% 29.58 in 10.0 mi SW 6.9 mph - N/A   Overcast
4:53 PM 48.9 °F - 39.0 °F 69% 29.60 in 10.0 mi SW 6.9 mph - N/A   Overcast
5:53 PM 48.9 °F - 39.0 °F 69% 29.61 in 10.0 mi SW 6.9 mph - N/A   Overcast
6:53 PM 48.0 °F - 39.9 °F 74% 29.63 in 10.0 mi SW 8.1 mph 17.3 mph 0.00 in   Overcast
7:53 PM 46.9 °F - 41.0 °F 80% 29.65 in 10.0 mi SW 10.4 mph - N/A   Overcast
8:02 PM 46.4 °F 41.9 °F 41.0 °F 81% 29.64 in 10.0 mi WSW 9.2 mph - N/A   Overcast
8:53 PM 46.0 °F 43.1 °F 42.1 °F 86% 29.65 in 10.0 mi SW 5.8 mph - 0.00 in Rain Light Rain
9:53 PM 46.0 °F 42.5 °F 42.1 °F 86% 29.65 in 10.0 mi WSW 6.9 mph - 0.00 in   Overcast
10:00 PM 46.4 °F 42.9 °F 42.8 °F 87% 29.64 in 10.0 mi WSW 6.9 mph - N/A   Overcast
10:53 PM 46.0 °F 42.5 °F 43.0 °F 89% 29.67 in 4.0 mi WSW 6.9 mph - N/A   Overcast
11:22 PM 46.4 °F 42.9 °F 42.8 °F 87% 29.66 in 7.0 mi WSW 6.9 mph - N/A   Overcast
11:51 PM 46.4 °F 43.5 °F 42.8 °F 87% 29.65 in 7.0 mi WSW 5.8 mph - 0.00 in Rain Light Rain
11:53 PM 46.0 °F 43.1 °F 43.0 °F 89% 29.66 in 7.0 mi WSW 5.8 mph - 0.00 in Rain Light Rain